Location: Fredericksburg
(30.2750°N, 98.8720°W)
Time: 10:39:22
(UTC-06:00)

ISS - All Passes

Search period start: 01 March 2015 00:00
Search period end: 11 March 2015 01:00
Orbit: 397 x 408 km, 51.6° (Epoch: 01 March)

Date Brightness Start Highest point End Pass type
(mag) Time Alt. Az. Time Alt. Az. Time Alt. Az.
01 Mar - 08:14:57 10° SSE 08:17:00 16° SE 08:19:09 10° E daylight
01 Mar - 09:50:27 10° WSW 09:53:17 28° NW 09:56:07 10° NNE daylight
01 Mar - 16:22:41 10° N 16:24:57 18° NE 16:27:17 10° E daylight
01 Mar - 17:58:33 10° WNW 18:01:26 29° SW 18:04:18 10° SSE daylight
02 Mar - 08:57:03 10° SW 09:00:15 65° NW 09:03:27 10° NE daylight
02 Mar - 17:05:17 10° NW 17:08:31 75° SW 17:11:45 10° SE daylight
03 Mar - 08:04:11 10° SSW 08:07:17 48° SE 08:10:24 10° NE daylight
03 Mar - 09:42:22 10° WNW 09:43:56 13° NW 09:45:26 10° N daylight
03 Mar - 16:12:25 10° NNW 16:15:31 43° NE 16:18:37 10° ESE daylight
03 Mar - 17:50:58 10° WSW 17:51:40 10° SW 17:52:12 10° SW daylight
04 Mar - 07:11:56 10° S 07:14:21 20° SE 07:16:51 10° ENE daylight
04 Mar - 08:48:01 10° W 08:50:42 23° NW 08:53:21 10° NNE daylight
04 Mar - 15:19:51 10° NNW 15:22:21 21° NE 15:24:56 10° E daylight
04 Mar - 16:56:05 10° WNW 16:58:45 23° SW 17:01:24 10° S daylight
05 Mar - 07:54:25 10° WSW 07:57:34 50° NW 08:00:42 10° NNE daylight
05 Mar - 14:27:58 10° NNE 14:29:04 11° NNE 14:30:18 10° NE daylight
05 Mar - 16:02:36 10° NW 16:05:47 58° SW 16:08:58 10° SSE daylight
06 Mar - 07:01:19 10° SSW 07:04:30 63° SE 07:07:42 10° NE daylight
06 Mar - 08:40:16 10° NW 08:41:15 11° NNW 08:42:07 10° NNW daylight
06 Mar - 15:09:34 10° NW 15:12:44 54° NE 15:15:54 10° ESE daylight
07 Mar - 06:08:48 10° S 06:11:29 25° SE 06:14:14 10° ENE visible
07 Mar - 07:45:25 10° W 07:47:54 20° NW 07:50:20 10° NNE daylight
07 Mar - 14:16:50 10° NNW 14:19:32 25° NE 14:22:17 10° E daylight
07 Mar - 15:53:27 10° W 15:55:52 19° SW 15:58:12 10° S daylight
08 Mar - 06:17:35 10° SE 06:18:30 11° SE 06:19:33 10° ESE visible
08 Mar - 07:51:35 10° WSW 07:54:39 40° NW 07:57:43 10° NNE daylight
08 Mar - 14:24:35 10° N 14:26:13 13° NE 14:27:55 10° ENE daylight
08 Mar - 15:59:43 10° WNW 16:02:50 45° SW 16:05:55 10° SSE daylight
09 Mar - 06:58:17 10° SW 07:01:30 81° SE 07:04:44 10° NE visible
09 Mar - 15:06:31 10° NW 15:09:44 69° NE 15:12:56 10° SE daylight
10 Mar - 06:05:31 10° SSW 06:08:24 31° SE 06:11:19 10° ENE visible
10 Mar - 07:42:39 10° W 07:44:53 17° NW 07:47:04 10° N daylight
10 Mar - 14:13:37 10° NNW 14:16:29 29° NE 14:19:23 10° ESE daylight
10 Mar - 15:50:41 10° W 15:52:45 15° SW 15:54:42 10° SSW daylight
